Weather History for Muenster, Germany

Change the Weather History Date:

Monday, December 2, 2013

  Actual Average Record
Temperature  
Mean Temperature 39 °F -  
Max Temperature 46 °F 39 °F 55 °F (2000)
Min Temperature 32 °F 31 °F 17 °F (2010)
Degree Days  
Heating Degree Days 26    
Moisture  
Dew Point 38 °F    
Average Humidity 90    
Maximum Humidity 100    
Minimum Humidity 63    
Precipitation  
Precipitation 0.00 in - - ()
Sea Level Pressure  
Sea Level Pressure 30.52 in    
Wind  
Wind Speed 2 mph ()    
Max Wind Speed 5 mph    
Max Gust Speed -    
Visibility 7.1 miles    
Events Fog    
Averages and records for this station are not official NWS values.
T = Trace of Precipitation, MM = Missing Value Source: Averaged Metar Reports

Daily Weather History Graph

Daily Weather History Graph

Search for Another Location

Airport:

Trip Planner

Search our weather history database for the weather conditions in past years. The results will help you decide how hot, cold, wet, or windy it might be!

Date:

Astronomy

Dec. 02, 2013 Rise Set
Actual Time 8:16 AM CET 4:20 PM CET
Civil Twilight 7:37 AM CET 5:00 PM CET
Nautical Twilight 6:53 AM CET 5:43 PM CET
Astronomical Twilight 6:13 AM CET 6:23 PM CET
Moon 7:17 AM CET (12/2) 4:12 PM CET (12/2)
Length of Visible Light 9h 22m
Length of Day
8h 03m
Waning Crescent, 0% of the Moon is Illuminated
Dec 2
Waning Crescent
Dec 3
New
Dec 9
First Quarter
Dec 17
Full
Dec 25
Last Quarter

Hourly Weather History & Observations

Time (CET) Temp. Windchill Dew Point Humidity Pressure Visibility Wind Dir Wind Speed Gust Speed Precip Events Conditions
12:00 AM 43 °F - 42 °F 95% 30.49 in 9 mi WNW 4.5 mph - -   Mostly Cloudy
12:20 AM 42.8 °F 41.1 °F 42.8 °F 100% 30.48 in 6.2 mi WNW 3.5 mph - N/A   Mostly Cloudy
12:50 AM 42.8 °F 41.1 °F 42.8 °F 100% 30.48 in 6.2 mi WNW 3.5 mph - N/A   Mostly Cloudy
1:00 AM 42 °F - 41 °F 94% 30.51 in 7 mi WNW 4.5 mph - -   Partly Cloudy
1:20 AM 42.8 °F 40.1 °F 41.0 °F 93% 30.48 in 6.2 mi NW 4.6 mph - N/A   Mostly Cloudy
1:50 AM 41.0 °F 39.0 °F 39.2 °F 93% 30.48 in 6.2 mi NNW 3.5 mph - N/A   Mostly Cloudy
2:00 AM 41 °F - 39 °F 92% 30.51 in 7 mi NNW 2.2 mph - -   Mostly Cloudy
2:20 AM 41.0 °F - 41.0 °F 100% 30.48 in 6.2 mi NNW 2.3 mph - N/A   Mostly Cloudy
2:50 AM 41.0 °F - 41.0 °F 100% 30.48 in 6.2 mi NW 2.3 mph - N/A   Mostly Cloudy
3:00 AM 40 °F - 39 °F 95% 30.52 in 7 mi NW 2.2 mph - -   Mostly Cloudy
3:20 AM 39.2 °F - 39.2 °F 100% 30.51 in 6.2 mi NW 1.2 mph - N/A   Mostly Cloudy
3:50 AM 39.2 °F - 39.2 °F 100% 30.51 in 6.2 mi NNW 2.3 mph - N/A   Mostly Cloudy
4:00 AM 40 °F - 39 °F 95% 30.53 in 7 mi NNW 2.2 mph - -   Mostly Cloudy
4:20 AM 41.0 °F 39.0 °F 41.0 °F 100% 30.51 in 6.2 mi North 3.5 mph - N/A   Mostly Cloudy
4:50 AM 41.0 °F 39.0 °F 41.0 °F 100% 30.51 in 6.2 mi North 3.5 mph - N/A   Mostly Cloudy
5:00 AM 41 °F - 39 °F 92% 30.53 in 7 mi North 2.2 mph - -   Mostly Cloudy
5:20 AM 41.0 °F - 41.0 °F 100% 30.51 in 6.2 mi NNW 1.2 mph - N/A   Mostly Cloudy
5:50 AM 41.0 °F - 41.0 °F 100% 30.51 in 6.2 mi WNW 1.2 mph - N/A   Mostly Cloudy
6:00 AM 40 °F - 39 °F 96% 30.54 in 6 mi WNW 2.2 mph - -   Mostly Cloudy
6:20 AM 41.0 °F - 41.0 °F 100% 30.51 in 5.6 mi Variable 1.2 mph - N/A   Mostly Cloudy
6:50 AM 41.0 °F - 41.0 °F 100% 30.51 in 5.6 mi Variable 1.2 mph - N/A   Mostly Cloudy
7:00 AM 40 °F - 40 °F 98% 30.54 in 6 mi SE 2.2 mph - -   Mostly Cloudy
7:20 AM 41.0 °F - 41.0 °F 100% 30.54 in 6.2 mi Variable 1.2 mph - N/A   Mostly Cloudy
7:50 AM 41.0 °F - 41.0 °F 100% 30.54 in 6.2 mi WNW 1.2 mph - N/A   Mostly Cloudy
8:00 AM 40 °F - 39 °F 97% 30.56 in 9 mi NW 2.2 mph - -   Mostly Cloudy
8:20 AM 41.0 °F - 41.0 °F 100% 30.54 in 6.2 mi Calm Calm - N/A   Mostly Cloudy
8:50 AM 41.0 °F - 41.0 °F 100% 30.54 in 6.2 mi Calm Calm - N/A   Mostly Cloudy
9:00 AM 40 °F - 39 °F 95% 30.57 in 7 mi Calm Calm - -   Mostly Cloudy
9:20 AM 39.2 °F - 39.2 °F 100% 30.57 in 6.2 mi Variable 1.2 mph - N/A Fog Shallow Fog
9:50 AM 41.0 °F - 39.2 °F 93% 30.57 in 6.2 mi Variable 1.2 mph - N/A Fog Shallow Fog
10:00 AM 41 °F - 39 °F 92% 30.59 in 7 mi West 2.2 mph - - Fog Patches of Fog
10:20 AM 42.8 °F - 39.2 °F 87% 30.57 in 6.2 mi SW 1.2 mph - N/A   Scattered Clouds
10:50 AM 44.6 °F - 37.4 °F 76% 30.57 in - Variable 1.2 mph - N/A   Clear
11:00 AM 45 °F - 39 °F 71% 30.59 in 9 mi West 2.2 mph - -   Clear
11:20 AM 46.4 °F - 39.2 °F 76% 30.57 in - Variable 1.2 mph - N/A   Clear
11:50 AM 46.4 °F - 37.4 °F 71% 30.57 in 6.2 mi NE 1.2 mph - N/A   Scattered Clouds
12:00 PM 46 °F - 38 °F 63% 30.58 in 12 mi NE 2.2 mph - -   Scattered Clouds
12:20 PM 46.4 °F - 37.4 °F 71% 30.57 in 6.2 mi East 2.3 mph - N/A   Scattered Clouds
12:50 PM 46.4 °F - 37.4 °F 71% 30.54 in 6.2 mi East 2.3 mph - N/A   Scattered Clouds
1:00 PM 46 °F - 37 °F 63% 30.57 in 12 mi North 2.2 mph - -   Partly Cloudy
1:20 PM 46.4 °F - 37.4 °F 71% 30.54 in 6.2 mi NNE 2.3 mph - N/A   Scattered Clouds
1:50 PM 46.4 °F 45.2 °F 39.2 °F 76% 30.54 in 6.2 mi Variable 3.5 mph - N/A   Scattered Clouds
2:00 PM 46 °F - 38 °F 65% 30.57 in 12 mi SE 2.2 mph - -   Partly Cloudy
2:20 PM 44.6 °F 43.1 °F 37.4 °F 76% 30.54 in 6.2 mi East 3.5 mph - N/A   Scattered Clouds
2:50 PM 44.6 °F - 39.2 °F 81% 30.54 in 6.2 mi East 2.3 mph - N/A   Scattered Clouds
3:00 PM 45 °F - 38 °F 67% 30.55 in 12 mi East 2.2 mph - -   Scattered Clouds
3:20 PM 44.6 °F 43.1 °F 39.2 °F 81% 30.54 in 6.2 mi ENE 3.5 mph - N/A   Scattered Clouds
3:50 PM 44.6 °F 43.1 °F 37.4 °F 76% 30.54 in 6.2 mi East 3.5 mph - N/A   Mostly Cloudy
4:00 PM 44 °F - 37 °F 68% 30.55 in 12 mi ESE 2.2 mph - -   Scattered Clouds
4:20 PM 42.8 °F 41.1 °F 37.4 °F 81% 30.51 in - ESE 3.5 mph - N/A   Clear
4:50 PM 41.0 °F - 37.4 °F 87% 30.51 in - ESE 2.3 mph - N/A   Clear
5:00 PM 42 °F - 36 °F 73% 30.54 in 12 mi ESE 2.2 mph - -   Clear
5:20 PM 41.0 °F - 35.6 °F 81% 30.51 in - East 2.3 mph - N/A   Clear
5:50 PM 39.2 °F 37.0 °F 35.6 °F 87% 30.51 in - ENE 3.5 mph - N/A   Clear
6:00 PM 38 °F - 35 °F 87% 30.54 in 9 mi ENE 2.2 mph - -   Clear
6:20 PM 39.2 °F - 35.6 °F 87% 30.51 in - East 2.3 mph - N/A   Clear
6:50 PM 37.4 °F - 35.6 °F 93% 30.51 in - East 2.3 mph - N/A   Clear
7:00 PM 38 °F - 35 °F 86% 30.53 in 9 mi ENE 2.2 mph - -   Clear
7:20 PM 35.6 °F 31.7 °F 33.8 °F 93% 30.51 in - ENE 4.6 mph - N/A   Clear
7:50 PM 35.6 °F 31.7 °F 35.6 °F 100% 30.51 in - NE 4.6 mph - N/A   Clear
8:00 PM 36 °F - 35 °F 93% 30.53 in 7 mi NE 4.5 mph - -   Clear
8:20 PM 35.6 °F 31.7 °F 35.6 °F 100% 30.48 in - ENE 4.6 mph - N/A   Clear
8:50 PM 33.8 °F 30.8 °F 32.0 °F 93% 30.48 in - East 3.5 mph - N/A   Clear
9:00 PM 34 °F - 32 °F 91% 30.52 in 7 mi East 2.2 mph - -   Clear
9:20 PM 32.0 °F - 32.0 °F 100% 30.48 in 6.2 mi East 1.2 mph - N/A Fog Shallow Fog
9:50 PM 32.0 °F - 32.0 °F 100% 30.48 in 6.2 mi Variable 1.2 mph - N/A Fog Shallow Fog
10:00 PM 32 °F - 31 °F 96% 30.51 in 7 mi East 2.2 mph - - Fog Patches of Fog
10:20 PM 32.0 °F - 32.0 °F 100% 30.48 in 6.2 mi Variable 1.2 mph - N/A Fog Shallow Fog
10:50 PM 32.0 °F - 32.0 °F 100% 30.48 in 6.2 mi SSE 1.2 mph - N/A Fog Shallow Fog
11:00 PM 32 °F - 31 °F 97% 30.51 in 7 mi South 2.2 mph - - Fog Patches of Fog
11:20 PM 32.0 °F - 32.0 °F 100% 30.48 in 6.2 mi ESE 2.3 mph - N/A Fog Patches of Fog
11:50 PM 33.8 °F - 33.8 °F 100% 30.45 in 6.2 mi ESE 2.3 mph - N/A Fog Shallow Fog